FW8871 Weather Reports


Display with metric or nautical units.
time (UTC)temp
F
wind
direction
speed
MPH
gust
MPH
rain 1hr
in
rain 24hr
in
rain mn
in
humidity
%
barometer
mb
20260903090546 76 162 11.0 16.0 0.00 0.00 0.00 58 1013.6
20260903090101 76 155 12.0 17.0 0.00 0.00 0.00 57 1013.5
20260903085545 77 158 12.0 17.0 0.00 0.00 0.00 57 1013.6
20260903085050 77 164 12.0 17.0 0.00 0.00 0.00 57 1013.6
20260903084603 77 159 12.0 18.0 0.00 0.00 0.00 56 1013.6
20260903084047 77 154 13.0 18.0 0.00 0.00 0.00 56 1013.6
20260903083547 77 153 11.0 18.0 0.00 0.00 0.00 56 1013.7
20260903083109 77 153 12.0 17.0 0.00 0.00 0.00 55 1013.6
20260903082546 77 162 12.0 17.0 0.00 0.00 0.00 55 1013.6
20260903082046 77 150 12.0 16.0 0.00 0.00 0.00 55 1013.7
20260903081604 77 154 11.0 17.0 0.00 0.00 0.00 55 1013.6
20260903081049 77 146 12.0 17.0 0.00 0.00 0.00 55 1013.6
20260903080547 77 150 11.0 16.0 0.00 0.00 0.00 55 1013.5
20260903080110 77 176 13.0 16.0 0.00 0.00 0.00 54 1013.5
20260903075547 77 149 11.0 16.0 0.00 0.00 0.00 54 1013.4
20260903075050 77 151 11.0 16.0 0.00 0.00 0.00 54 1013.4
20260903074603 77 127 11.0 16.0 0.00 0.00 0.00 54 1013.4
20260903074046 77 155 12.0 16.0 0.00 0.00 0.00 54 1013.5
20260903073547 77 142 13.0 16.0 0.00 0.00 0.00 54 1013.5
20260903073116 77 152 12.0 16.0 0.00 0.00 0.00 54 1013.5
20260903072546 77 168 12.0 16.0 0.00 0.00 0.00 54 1013.5
20260903072046 77 163 11.0 16.0 0.00 0.00 0.00 53 1013.6
20260903071608 77 153 11.0 15.0 0.00 0.00 0.00 53 1013.6
20260903071057 77 154 11.0 14.0 0.00 0.00 0.00 53 1013.5
20260903070549 78 143 11.0 15.0 0.00 0.00 0.00 52 1013.5
20260903070109 78 150 11.0 16.0 0.00 0.00 0.00 52 1013.6
20260903065546 78 150 10.0 16.0 0.00 0.00 0.00 52 1013.6
20260903065046 78 141 11.0 14.0 0.00 0.00 0.00 52 1013.5
20260903064558 78 161 11.0 14.0 0.00 0.00 0.00 52 1013.5
20260903064047 78 181 11.0 15.0 0.00 0.00 0.00 52 1013.5
20260903063546 78 181 11.0 15.0 0.00 0.00 0.00 51 1013.5
20260903063118 78 165 10.0 15.0 0.00 0.00 0.00 51 1013.5
20260903062546 78 155 11.0 16.0 0.00 0.00 0.00 50 1013.5
20260903062048 79 148 10.0 16.0 0.00 0.00 0.00 50 1013.5
20260903061605 79 171 11.0 15.0 0.00 0.00 0.00 50 1013.4
20260903061049 79 160 11.0 16.0 0.00 0.00 0.00 49 1013.5
20260903060546 79 161 11.0 16.0 0.00 0.00 0.00 49 1013.5
20260903060100 80 140 11.0 16.0 0.00 0.00 0.00 48 1013.5
20260903055546 80 157 11.0 15.0 0.00 0.00 0.00 48 1013.4
20260903055049 81 165 11.0 17.0 0.00 0.00 0.00 48 1013.5
20260903054557 81 168 12.0 17.0 0.00 0.00 0.00 48 1013.6
20260903054047 81 194 11.0 16.0 0.00 0.00 0.00 48 1013.5
20260903053549 81 159 11.0 17.0 0.00 0.00 0.00 47 1013.5
20260903053105 81 202 10.0 17.0 0.00 0.00 0.00 48 1013.4
20260903052548 81 176 11.0 16.0 0.00 0.00 0.00 48 1013.3
20260903052050 80 174 11.0 15.0 0.00 0.00 0.00 48 1013.3
20260903051603 81 156 11.0 14.0 0.00 0.00 0.00 48 1013.2
20260903051048 81 147 9.0 14.0 0.00 0.00 0.00 47 1013.3
20260903050549 81 151 10.0 15.0 0.00 0.00 0.00 47 1013.3
20260903045546 82 157 10.0 15.0 0.00 0.00 0.00 46 1013.4
20260903045052 82 159 11.0 16.0 0.00 0.00 0.00 45 1013.5
20260903044606 83 184 11.0 16.0 0.00 0.00 0.00 45 1013.4
20260903044049 83 160 10.0 17.0 0.00 0.00 0.00 45 1013.3
20260903043545 83 167 11.0 17.0 0.00 0.00 0.00 44 1013.3
20260903043110 83 152 13.0 17.0 0.00 0.00 0.00 44 1013.3
20260903042547 83 194 12.0 16.0 0.00 0.00 0.00 44 1013.2
20260903042046 83 172 12.0 16.0 0.00 0.00 0.00 44 1013.2
20260903041558 83 151 11.0 16.0 0.00 0.00 0.00 44 1013.3
20260903041046 83 140 12.0 15.0 0.00 0.00 0.00 44 1013.3
20260903040550 83 165 10.0 13.0 0.00 0.00 0.00 43 1013.2
20260903040115 84 176 10.0 13.0 0.00 0.00 0.00 43 1013.2
20260903035545 84 168 9.0 14.0 0.00 0.00 0.00 43 1013.4
20260903035045 84 182 9.0 14.0 0.00 0.00 0.00 42 1013.4
20260903034602 84 189 10.0 14.0 0.00 0.00 0.00 42 1013.3
20260903034046 84 157 9.0 13.0 0.00 0.00 0.00 42 1013.2
20260903033547 84 170 9.0 13.0 0.00 0.00 0.00 42 1013.2
20260903033103 84 155 9.0 13.0 0.00 0.00 0.00 42 1013.2
20260903032546 84 167 8.0 12.0 0.00 0.00 0.00 42 1013.2
20260903032047 84 157 8.0 12.0 0.00 0.00 0.00 42 1013.2
20260903031605 84 157 8.0 11.0 0.00 0.00 0.00 42 1013.2
20260903031045 84 160 7.0 10.0 0.00 0.00 0.00 42 1013.1
20260903030549 84 169 7.0 10.0 0.00 0.00 0.00 41 1012.9
20260903030111 84 136 7.0 9.0 0.00 0.00 0.00 41 1012.9
20260903025546 85 141 8.0 11.0 0.00 0.00 0.00 40 1012.9
20260903025046 85 135 8.0 11.0 0.00 0.00 0.00 39 1012.7
20260903024605 86 165 8.0 12.0 0.00 0.00 0.00 39 1012.7
20260903024046 86 157 8.0 12.0 0.00 0.00 0.00 39 1012.7
20260903023548 86 145 8.0 11.0 0.00 0.00 0.00 39 1012.7
20260903023108 86 139 7.0 11.0 0.00 0.00 0.00 39 1012.5
20260903022546 86 150 8.0 11.0 0.00 0.00 0.00 39 1012.7
20260903022046 86 157 8.0 10.0 0.00 0.00 0.00 39 1012.5
20260903021604 86 139 6.0 10.0 0.00 0.00 0.00 39 1012.4
20260903021046 86 149 7.0 12.0 0.00 0.00 0.00 39 1012.3
20260903020546 87 155 8.0 12.0 0.00 0.00 0.00 39 1012.4
20260903020105 87 147 8.0 12.0 0.00 0.00 0.00 38 1012.3
20260903015546 88 146 9.0 12.0 0.00 0.00 0.00 38 1012.2
20260903015050 88 139 8.0 12.0 0.00 0.00 0.00 38 1012.2
20260903014605 88 152 7.0 9.0 0.00 0.00 0.00 37 1012.1
20260903014046 89 146 7.0 10.0 0.00 0.00 0.00 36 1012.1
20260903013552 89 139 6.0 13.0 0.00 0.00 0.00 36 1012.0
20260903013106 90 152 7.0 13.0 0.00 0.00 0.00 36 1012.1
20260903012547 90 139 6.0 9.0 0.00 0.00 0.00 36 1012.0
20260903012046 90 171 6.0 12.0 0.00 0.00 0.00 36 1011.9
20260903011606 90 150 5.0 12.0 0.00 0.00 0.00 36 1011.9
20260903011045 91 159 5.0 11.0 0.00 0.00 0.00 35 1011.8
20260903010546 92 151 4.0 7.0 0.00 0.00 0.00 34 1011.8
20260903010104 94 155 5.0 10.0 0.00 0.00 0.00 32 1011.8
20260903005547 94 163 6.0 10.0 0.00 0.00 0.00 32 1011.7
20260903005046 95 169 7.0 13.0 0.00 0.00 0.00 31 1011.7
20260903004625 96 176 9.0 13.0 0.00 0.00 0.00 30 1011.8
20260903004046 96 217 9.0 17.0 0.00 0.00 0.00 30 1011.7
20260903003547 97 174 9.0 17.0 0.00 0.00 0.00 30 1011.5
20260903003102 97 194 9.0 17.0 0.00 0.00 0.00 30 1011.6
20260903002546 97 172 12.0 17.0 0.00 0.00 0.00 29 1011.5
20260903002046 97 198 12.0 17.0 0.00 0.00 0.00 29 1011.6
20260903001559 98 184 12.0 18.0 0.00 0.00 0.00 29 1011.6
20260903001045 98 221 11.0 18.0 0.00 0.00 0.00 29 1011.5
20260903000545 98 203 12.0 18.0 0.00 0.00 0.00 29 1011.5
20260903000054 98 188 12.0 18.0 0.00 0.00 0.00 30 1011.6
20260902235547 98 220 13.0 20.0 0.00 0.00 0.00 29 1011.6
20260902235047 98 186 12.0 20.0 0.00 0.00 0.00 29 1011.6
20260902234603 98 170 16.0 21.0 0.00 0.00 0.00 29 1011.6
20260902234046 98 198 14.0 21.0 0.00 0.00 0.00 29 1011.7
20260902233547 98 186 13.0 21.0 0.00 0.00 0.00 29 1011.7
20260902233105 98 191 13.0 19.0 0.00 0.00 0.00 29 1011.8
20260902232547 99 205 14.0 21.0 0.00 0.00 0.00 28 1011.8
20260902232048 99 161 12.0 23.0 0.00 0.00 0.00 28 1011.8
20260902231602 99 184 13.0 23.0 0.00 0.00 0.00 28 1011.7
20260902231046 99 169 15.0 23.0 0.00 0.00 0.00 28 1011.7
20260902230547 99 214 11.0 20.0 0.00 0.00 0.00 29 1011.7
20260902230106 100 203 12.0 20.0 0.00 0.00 0.00 28 1011.8
20260902225546 100 194 13.0 21.0 0.00 0.00 0.00 28 1011.8
20260902225047 100 183 16.0 23.0 0.00 0.00 0.00 28 1011.9
20260902224604 100 217 15.0 23.0 0.00 0.00 0.00 27 1011.9
20260902224046 100 203 15.0 23.0 0.00 0.00 0.00 27 1011.8
20260902223546 100 239 13.0 23.0 0.00 0.00 0.00 27 1011.8
20260902223117 100 191 13.0 21.0 0.00 0.00 0.00 27 1011.8
20260902222546 100 174 15.0 21.0 0.00 0.00 0.00 27 1011.8
20260902222045 100 170 14.0 22.0 0.00 0.00 0.00 27 1011.8
20260902221557 99 173 15.0 22.0 0.00 0.00 0.00 27 1011.9
20260902221050 100 158 14.0 22.0 0.00 0.00 0.00 27 1011.9
20260902220546 100 217 15.0 22.0 0.00 0.00 0.00 27 1011.8
20260902220109 99 180 13.0 24.0 0.00 0.00 0.00 27 1011.9
20260902215547 100 205 14.0 24.0 0.00 0.00 0.00 28 1011.9
20260902215048 100 224 18.0 24.0 0.00 0.00 0.00 28 1011.8
20260902214608 100 247 12.0 25.0 0.00 0.00 0.00 28 1011.9
20260902214047 100 207 15.0 25.0 0.00 0.00 0.00 27 1012.1
20260902213548 100 198 14.0 20.0 0.00 0.00 0.00 27 1012.1
20260902213105 100 169 11.0 25.0 0.00 0.00 0.00 28 1012.1
20260902212546 100 0 15.0 25.0 0.00 0.00 0.00 28 1012.2
20260902212046 99 180 16.0 26.0 0.00 0.00 0.00 29 1012.3
20260902211604 99 191 17.0 26.0 0.00 0.00 0.00 28 1012.4
20260902211046 99 197 14.0 24.0 0.00 0.00 0.00 29 1012.5
20260902210549 99 194 17.0 30.0 0.00 0.00 0.00 29 1012.6
20260902210109 99 169 18.0 30.0 0.00 0.00 0.00 29 1012.7
20260902205547 99 186 20.0 30.0 0.00 0.00 0.00 28 1012.7
20260902205049 99 158 14.0 28.0 0.00 0.00 0.00 29 1012.9
20260902204640 100 222 18.0 28.0 0.00 0.00 0.00 28 1013.0
20260902204046 100 189 16.0 25.0 0.00 0.00 0.00 28 1013.0
20260902203546 100 195 16.0 27.0 0.00 0.00 0.00 29 1013.1
20260902203103 100 221 17.0 27.0 0.00 0.00 0.00 29 1013.3
20260902202549 99 221 11.0 27.0 0.00 0.00 0.00 29 1013.1
20260902202048 100 195 17.0 25.0 0.00 0.00 0.00 28 1013.4
20260902201606 100 203 13.0 25.0 0.00 0.00 0.00 29 1013.3
20260902201052 99 220 16.0 25.0 0.00 0.00 0.00 29 1013.4
20260902200548 99 210 16.0 25.0 0.00 0.00 0.00 29 1013.4
20260902200109 100 185 16.0 27.0 0.00 0.00 0.00 28 1013.5
20260902195547 100 141 17.0 27.0 0.00 0.00 0.00 29 1013.7
20260902195047 99 230 16.0 25.0 0.00 0.00 0.00 29 1013.6
20260902194606 99 191 19.0 25.0 0.00 0.00 0.00 29 1013.5
20260902194048 99 198 16.0 24.0 0.00 0.00 0.00 29 1013.7
20260902193548 99 198 16.0 28.0 0.00 0.00 0.00 29 1013.9
20260902193101 99 167 18.0 28.0 0.00 0.00 0.00 30 1014.0
20260902192550 98 193 17.0 24.0 0.00 0.00 0.00 30 1014.1
20260902192050 98 170 15.0 24.0 0.00 0.00 0.00 30 1014.0
20260902191607 98 211 18.0 28.0 0.00 0.00 0.00 29 1014.2
20260902191048 98 195 17.0 28.0 0.00 0.00 0.00 30 1014.3
20260902190548 98 207 17.0 26.0 0.00 0.00 0.00 30 1014.4
20260902190108 98 172 16.0 24.0 0.00 0.00 0.00 30 1014.4
20260902185548 97 196 16.0 23.0 0.00 0.00 0.00 30 1014.4
20260902185049 97 145 16.0 28.0 0.00 0.00 0.00 30 1014.6
20260902184608 97 229 15.0 28.0 0.00 0.00 0.00 31 1014.7
20260902184051 97 181 15.0 21.0 0.00 0.00 0.00 30 1014.8
20260902183548 97 207 12.0 20.0 0.00 0.00 0.00 31 1014.9
20260902183112 97 207 13.0 20.0 0.00 0.00 0.00 31 1015.0
20260902182548 97 200 12.0 20.0 0.00 0.00 0.00 31 1015.2
20260902182051 96 205 11.0 21.0 0.00 0.00 0.00 32 1015.1
20260902181612 96 212 13.0 21.0 0.00 0.00 0.00 33 1015.3
20260902181047 96 167 14.0 21.0 0.00 0.00 0.00 33 1015.2
20260902180547 96 203 13.0 19.0 0.00 0.00 0.00 33 1015.3
20260902180106 96 190 11.0 21.0 0.00 0.00 0.00 33 1015.4
20260902175548 95 207 11.0 21.0 0.00 0.00 0.00 34 1015.4
20260902175052 94 210 13.0 22.0 0.00 0.00 0.00 34 1015.5
20260902174603 94 226 14.0 22.0 0.00 0.00 0.00 34 1015.7
20260902174049 94 252 16.0 22.0 0.00 0.00 0.00 34 1015.7
20260902173549 94 219 14.0 20.0 0.00 0.00 0.00 35 1015.6
20260902173120 94 207 12.0 20.0 0.00 0.00 0.00 34 1015.7
20260902172549 94 188 14.0 20.0 0.00 0.00 0.00 35 1015.7
20260902172050 94 223 10.0 18.0 0.00 0.00 0.00 35 1015.8
20260902171609 93 185 13.0 22.0 0.00 0.00 0.00 36 1016.0
20260902171049 92 210 14.0 22.0 0.00 0.00 0.00 35 1015.9
20260902170548 93 232 16.0 22.0 0.00 0.00 0.00 35 1015.9
20260902170106 93 227 12.0 21.0 0.00 0.00 0.00 35 1016.0
20260902165546 93 203 13.0 23.0 0.00 0.00 0.00 36 1016.1
20260902165046 92 229 14.0 23.0 0.00 0.00 0.00 36 1016.0
20260902164605 91 191 13.0 21.0 0.00 0.00 0.00 37 1016.0
20260902164051 90 206 14.0 22.0 0.00 0.00 0.00 38 1016.0
20260902163546 90 243 15.0 23.0 0.00 0.00 0.00 37 1016.1
20260902163107 91 216 15.0 23.0 0.00 0.00 0.00 36 1016.3
20260902162547 92 212 15.0 24.0 0.00 0.00 0.00 36 1016.2
20260902162051 91 193 14.0 25.0 0.00 0.00 0.00 37 1016.2
20260902161610 90 190 18.0 25.0 0.00 0.00 0.00 37 1016.2
20260902161047 90 184 18.0 23.0 0.00 0.00 0.00 37 1016.4
20260902160546 89 204 17.0 23.0 0.00 0.00 0.00 38 1016.3
20260902160103 88 198 16.0 23.0 0.00 0.00 0.00 39 1016.2
20260902155546 89 202 16.0 23.0 0.00 0.00 0.00 38 1016.3
20260902155046 89 205 15.0 24.0 0.00 0.00 0.00 38 1016.2
20260902154605 89 198 14.0 26.0 0.00 0.00 0.00 37 1016.3
20260902154046 90 211 19.0 26.0 0.00 0.00 0.00 37 1016.3
20260902153551 89 230 18.0 26.0 0.00 0.00 0.00 37 1016.2
20260902153108 89 189 20.0 26.0 0.00 0.00 0.00 38 1016.2
20260902152551 89 219 20.0 26.0 0.00 0.00 0.00 38 1016.3
20260902152048 88 219 18.0 28.0 0.00 0.00 0.00 39 1016.1
20260902151602 88 191 17.0 28.0 0.00 0.00 0.00 39 1016.1
20260902151046 87 216 20.0 26.0 0.00 0.00 0.00 40 1016.1
20260902150546 86 188 16.0 25.0 0.00 0.00 0.00 41 1016.1
20260902150104 85 205 16.0 25.0 0.00 0.00 0.00 41 1016.2
20260902145546 85 194 17.0 25.0 0.00 0.00 0.00 42 1016.2
20260902145051 84 172 16.0 25.0 0.00 0.00 0.00 42 1016.2
20260902144601 84 192 18.0 24.0 0.00 0.00 0.00 43 1016.2
20260902144049 83 170 14.0 21.0 0.00 0.00 0.00 44 1016.1
20260902143546 82 184 15.0 21.0 0.00 0.00 0.00 46 1016.3
20260902143104 82 142 15.0 23.0 0.00 0.00 0.00 46 1016.4
20260902142546 82 127 14.0 23.0 0.00 0.00 0.00 45 1016.4
20260902142048 82 167 16.0 23.0 0.00 0.00 0.00 45 1016.4
20260902141602 82 185 14.0 22.0 0.00 0.00 0.00 45 1016.4
20260902141046 82 201 16.0 22.0 0.00 0.00 0.00 45 1016.3
20260902140546 82 156 15.0 21.0 0.00 0.00 0.00 46 1016.1
20260902140106 81 193 14.0 21.0 0.00 0.00 0.00 47 1016.2
20260902135546 81 174 15.0 21.0 0.00 0.00 0.00 47 1016.1
20260902135049 80 171 14.0 19.0 0.00 0.00 0.00 48 1016.2
20260902134557 80 167 14.0 22.0 0.00 0.00 0.00 49 1016.3
20260902134048 79 162 15.0 22.0 0.00 0.00 0.00 50 1016.2
20260902133549 79 189 14.0 19.0 0.00 0.00 0.00 51 1016.2
20260902133109 78 178 14.0 19.0 0.00 0.00 0.00 52 1016.2
20260902132547 78 155 12.0 19.0 0.00 0.00 0.00 53 1016.2
20260902132045 77 155 15.0 19.0 0.00 0.00 0.00 54 1016.2
20260902131604 76 171 12.0 19.0 0.00 0.00 0.00 55 1016.2
20260902131048 76 165 13.0 18.0 0.00 0.00 0.00 56 1016.2
20260902130545 75 171 12.0 18.0 0.00 0.00 0.00 56 1016.2
20260902130115 75 159 12.0 18.0 0.00 0.00 0.00 57 1016.3
20260902125546 74 162 13.0 18.0 0.00 0.00 0.00 57 1016.2
20260902125053 74 157 12.0 18.0 0.00 0.00 0.00 58 1016.2
20260902124557 74 162 11.0 17.0 0.00 0.00 0.00 58 1016.2
20260902124048 74 148 12.0 17.0 0.00 0.00 0.00 58 1016.2
20260902123545 73 183 12.0 17.0 0.00 0.00 0.00 58 1016.3
20260902123109 73 169 12.0 16.0 0.00 0.00 0.00 58 1016.3
20260902122547 73 164 12.0 16.0 0.00 0.00 0.00 58 1016.2
20260902122048 73 165 12.0 17.0 0.00 0.00 0.00 58 1016.1
20260902121601 74 155 12.0 17.0 0.00 0.00 0.00 57 1016.1
20260902121046 74 160 12.0 17.0 0.00 0.00 0.00 57 1016.0
20260902120550 74 163 12.0 16.0 0.00 0.00 0.00 57 1015.9
20260902115548 74 155 11.0 16.0 0.00 0.00 0.00 57 1015.8
20260902115046 74 168 11.0 15.0 0.00 0.00 0.00 57 1015.8
20260902114604 74 175 11.0 15.0 0.00 0.00 0.00 57 1015.7
20260902114046 73 169 10.0 16.0 0.00 0.00 0.00 57 1015.7
20260902113545 73 186 10.0 16.0 0.00 0.00 0.00 57 1015.7
20260902113100 73 169 10.0 14.0 0.00 0.00 0.00 57 1015.7
20260902112546 73 172 10.0 14.0 0.00 0.00 0.00 58 1015.7
20260902112052 72 160 9.0 13.0 0.00 0.00 0.00 58 1015.8
20260902111603 72 163 9.0 14.0 0.00 0.00 0.00 58 1015.8
20260902111046 72 148 10.0 14.0 0.00 0.00 0.00 58 1015.8
20260902110546 72 155 9.0 12.0 0.00 0.00 0.00 58 1015.8
20260902110104 72 165 9.0 12.0 0.00 0.00 0.00 58 1015.8
20260902105545 72 148 9.0 12.0 0.00 0.00 0.00 58 1015.8
20260902105046 72 140 9.0 12.0 0.00 0.00 0.00 58 1015.8
20260902104621 72 161 9.0 12.0 0.00 0.00 0.00 58 1015.8
20260902104047 72 166 9.0 11.0 0.00 0.00 0.00 58 1016.0
20260902103547 72 134 9.0 11.0 0.00 0.00 0.00 58 1016.0
20260902103117 72 150 8.0 11.0 0.00 0.00 0.00 57 1016.1
20260902102546 72 158 8.0 11.0 0.00 0.00 0.00 57 1016.1
20260902102046 73 149 8.0 13.0 0.00 0.00 0.00 57 1016.1
20260902101609 73 141 9.0 13.0 0.00 0.00 0.00 57 1016.1
20260902101046 73 158 9.0 13.0 0.00 0.00 0.00 56 1016.0
20260902100548 73 152 9.0 13.0 0.00 0.00 0.00 56 1016.1
20260902095547 73 145 8.0 12.0 0.00 0.00 0.00 56 1016.1
20260902095045 73 154 9.0 12.0 0.00 0.00 0.00 55 1016.1
20260902094605 74 158 9.0 12.0 0.00 0.00 0.00 55 1016.1
20260902094046 74 160 9.0 13.0 0.00 0.00 0.00 55 1016.0
20260902093547 74 148 9.0 13.0 0.00 0.00 0.00 54 1016.0
20260902093107 74 151 10.0 14.0 0.00 0.00 0.00 54 1016.1
20260902092551 75 166 10.0 14.0 0.00 0.00 0.00 53 1016.1
20260902092047 75 167 10.0 14.0 0.00 0.00 0.00 53 1016.1
20260902091555 75 151 10.0 14.0 0.00 0.00 0.00 53 1016.0
20260902091046 75 179 9.0 14.0 0.00 0.00 0.00 53 1016.0